Weather History for KORE - December, 2011

Change the Weather History Date:

Friday, December 16, 2011

  Actual Average Record
Temperature  
Mean Temperature 41 °F -  
Max Temperature 50 °F 35 °F 50 °F (2011)
Min Temperature 32 °F 18 °F 6 °F (2004)
Degree Days  
Heating Degree Days 24    
Moisture  
Dew Point 32 °F    
Average Humidity 73    
Maximum Humidity 90    
Minimum Humidity 55    
Precipitation  
Precipitation 0.10 in - - ()
Sea Level Pressure  
Sea Level Pressure 29.93 in    
Wind  
Wind Speed 13 mph (West)    
Max Wind Speed 23 mph    
Max Gust Speed 34 mph    
Visibility 10 miles    
Events Rain    
Averages and records for this station are not official NWS values.
T = Trace of Precipitation, MM = Missing Value Source: NWS Daily Summary

Daily Weather History Graph

Daily Weather History Graph

Search for Another Location

Airport or City:

Trip Planner

Search our weather history database for the weather conditions in past years. The results will help you decide how hot, cold, wet, or windy it might be!

Date:

Astronomy

Dec. 16, 2011 Rise Set
Actual Time 7:12 AM EST 4:16 PM EST
Civil Twilight 6:40 AM EST 4:48 PM EST
Nautical Twilight 6:04 AM EST 5:24 PM EST
Astronomical Twilight 5:30 AM EST 5:58 PM EST
Moon 10:54 PM EST (12/16) 10:50 AM EST (12/16)
Length of Visible Light 10h 08m
Length of Day
9h 04m
Waning Gibbous, 65% of the Moon is Illuminated
Dec 16
Waning Gibbous
Dec 17
Last Quarter
Dec 24
New
Jan 1
First Quarter
Jan 9
Full

Hourly Weather History & Observations

Time (EST) Temp. Windchill Dew Point Humidity Pressure Visibility Wind Dir Wind Speed Gust Speed Precip Events Conditions
12:52 AM 48.9 °F - 46.0 °F 90% 29.65 in 10.0 mi SSW 15.0 mph 20.7 mph N/A   Clear
1:52 AM 50.0 °F - 46.9 °F 89% 29.64 in 10.0 mi SSW 13.8 mph - N/A   Partly Cloudy
2:52 AM 48.9 °F - 46.0 °F 90% 29.63 in 8.0 mi SSW 12.7 mph - 0.03 in   Partly Cloudy
3:52 AM 46.9 °F - 43.0 °F 86% 29.68 in 3.0 mi NW 19.6 mph 33.4 mph 0.06 in Rain Rain
5:52 AM 45.0 °F 37.6 °F 34.0 °F 65% 29.78 in 10.0 mi WNW 17.3 mph 24.2 mph N/A   Overcast
7:01 AM 39.2 °F 28.7 °F 33.8 °F 81% 29.84 in 10.0 mi WNW 23.0 mph 34.5 mph 0.01 in Rain Light Rain
7:14 AM 39.2 °F 30.2 °F 32.0 °F 75% 29.85 in 10.0 mi WNW 17.3 mph 32.2 mph 0.01 in   Scattered Clouds
7:52 AM 39.9 °F 32.5 °F 28.0 °F 63% 29.87 in 10.0 mi West 12.7 mph 31.1 mph 0.01 in   Clear
8:52 AM 39.9 °F 32.9 °F 27.0 °F 60% 29.92 in 10.0 mi WNW 11.5 mph 26.5 mph N/A   Scattered Clouds
9:52 AM 39.9 °F 32.1 °F 28.0 °F 63% 29.95 in 10.0 mi West 13.8 mph 21.9 mph N/A   Overcast
10:52 AM 42.1 °F 33.3 °F 27.0 °F 55% 29.96 in 10.0 mi WNW 19.6 mph 29.9 mph N/A   Overcast
11:52 AM 42.1 °F 34.2 °F 28.0 °F 58% 29.96 in 10.0 mi West 16.1 mph 28.8 mph N/A   Mostly Cloudy
12:52 PM 43.0 °F 35.1 °F 28.0 °F 56% 29.97 in 10.0 mi WNW 17.3 mph 25.3 mph N/A   Mostly Cloudy
1:52 PM 43.0 °F 35.7 °F 28.0 °F 56% 30.00 in 10.0 mi WNW 15.0 mph 26.5 mph N/A   Partly Cloudy
3:52 PM 41.0 °F 37.1 °F 28.0 °F 60% 30.04 in 10.0 mi Variable 5.8 mph 16.1 mph N/A   Partly Cloudy
4:52 PM 39.0 °F 33.4 °F 28.0 °F 65% 30.04 in 10.0 mi West 8.1 mph - N/A   Clear
5:52 PM 37.9 °F 33.5 °F 28.0 °F 68% 30.07 in 10.0 mi WSW 5.8 mph - N/A   Mostly Cloudy
6:52 PM 37.0 °F 33.3 °F 28.0 °F 70% 30.08 in 10.0 mi SW 4.6 mph - N/A   Mostly Cloudy
7:52 PM 33.1 °F - 28.0 °F 82% 30.08 in 10.0 mi Calm Calm - N/A   Overcast
8:52 PM 33.1 °F - 28.0 °F 82% 30.08 in 10.0 mi Calm Calm - N/A   Overcast
9:52 PM 32.0 °F - 28.9 °F 88% 30.07 in 10.0 mi Calm Calm - N/A   Clear
10:52 PM 33.1 °F 27.7 °F 28.9 °F 85% 30.07 in 10.0 mi SSE 5.8 mph - N/A   Clear
11:52 PM 32.0 °F - 28.0 °F 85% 30.06 in 10.0 mi Calm Calm - N/A   Clear